Miscellaneous Local Product
Issued by NWS North Platte, NE

Home | Current Version | Previous Version | Text Only | Print | Product List | Glossary On
Versions: 1 2 3 4 5 6 7 8 9 10 11 12 13 14 15 16 17 18 19 20 21 22 23 24 25 26 27 28 29 30 31 32 33 34 35 36 37 38 39 40 41 42 43 44 45 46 47 48 49 50
000
AXUS43 KLBF 191410
MISLBF


WESTERN AND NORTH CENTRAL NEBRASKA HOURLY WEATHER ROUNDUP
NATIONAL WEATHER SERVICE NORTH PLATTE NE
900 AM CDT TUE AUG 19 2014

***STATIONS NOT REPORTING VARIABLES SUCH AS SKY/WEATHER OR
PRESSURE ARE PROVIDED BY THE NEBRASKA DEPARTMENT OF
ROADS...RAWS...AND APRS NETWORKS...AND ARE NOT UNDER
NATIONAL WEATHER SERVICE QUALITY CONTROL***

...OBSERVATIONS IN AND NEAR THE EASTERN PANHANDLE OF NEBRASKA...

CITY           SKY/WX    TMP DP  RH WIND       PRES   REMARKS
PINE RIDGE     MOSUNNY   69  57  65 VRB6      29.89F
CHADRON        SUNNY     72  56  57 VRB3      29.87F
ALLIANCE       MOSUNNY   64  56  75 SE8       29.92F
SIDNEY         SUNNY     68  55  63 SE8       29.95F
WHITECLAY        N/A     67  56  68 SE9         N/A
RUSHVILLE        N/A     67  57  71 S10         N/A
GORDON           N/A     70  60  70 S13         N/A
CRESCENT LAKE    N/A     68  58  70 CALM        N/A
LISCO            N/A     70  58  66 E5          N/A
BIG SPRINGS      N/A     58  56  95 CALM        N/A
$$

...OBSERVATIONS IN NORTH CENTRAL NEBRASKA...

CITY           SKY/WX    TMP DP  RH WIND       PRES   REMARKS
VALENTINE      SUNNY     67  59  75 CALM      29.89S
THEDFORD       SUNNY     69  63  83 S3        29.92R
AINSWORTH      SUNNY     67  61  80 CALM      29.89F
O`NEILL        SUNNY     69  63  81 CALM      29.87S
ORD            SUNNY     68  63  84 CALM      29.87F
BROKEN BOW     SUNNY     69  63  81 CALM      29.90S
BROWNLEE         N/A     73  62  67 CALM        N/A
SPRINGVIEW       N/A     63  58  83 W3          N/A
DUNNING          N/A     67   1   7 CALM        N/A
ROSE             N/A     74  66  75 CALM        N/A
NEWPORT          N/A     71  62  72 CALM        N/A
SARGENT          N/A     67  64  91 CALM        N/A
COMSTOCK         N/A     76  69  78 CALM        N/A
CHAMBERS         N/A     74  64  69 CALM        N/A
EWING            N/A     70  66  86 CALM        N/A
$$

...OBSERVATIONS IN SOUTHWEST NEBRASKA AND FAR NORTHEAST COLORADO...

CITY           SKY/WX    TMP DP  RH WIND       PRES   REMARKS
WRAY             N/A     68  56  65 CALM      29.93F
IMPERIAL       SUNNY     68  58  70 CALM      29.92S
OGALLALA       SUNNY     64  57  78 CALM      29.93S
NORTH PLATTE   SUNNY     68  64  87 SE5       29.91R
MCCOOK         SUNNY     68  58  70 NE3       29.91S
LEXINGTON      SUNNY     70  68  94 SE3       29.89F
PAXTON           N/A     59  57  92 CALM        N/A
SUTHERLAND       N/A     69  65  88 CALM        N/A
BRADY            N/A     67  64  90 CALM        N/A
GOTHENBURG       N/A     67  61  81 CALM        N/A
CALLAWAY         N/A     60  59  98 SE3         N/A
$$

...SOME WEATHER OBSERVATIONS FROM AROUND THE REGION...

CITY           SKY/WX    TMP DP  RH WIND       PRES   REMARKS
DENVER         PTSUNNY   64  46  52 W12       30.00R
LARAMIE        MOSUNNY   57  39  51 SW8       30.12R
CHEYENNE       SUNNY     64  51  62 W7        30.02F
SCOTTSBLUFF    SUNNY     63  56  78 SE8       29.92F
RAPID CITY     SUNNY     67  58  72 S6        29.88F
PIERRE         SUNNY     64  59  83 CALM      29.82R
WINNER         FAIR      71  58  63 CALM      29.86S
SIOUX FALLS    SUNNY     71  63  75 VRB3      29.82R
OMAHA          MOSUNNY   75  62  64 N6        29.83R
GRAND ISLAND   SUNNY     74  65  73 CALM      29.89R
KANSAS CITY    PTSUNNY   76  68  76 W6        29.83R
WICHITA        MOSUNNY   77  63  61 S9        29.86R
HAYS           SUNNY     75  57  53 SW5       29.87S
LIBERAL        SUNNY     75  61  60 S12       29.96S
GOODLAND       PTSUNNY   69  57  65 SW9       29.92S
$$



USA.gov is the U.S. government's official web portal to all federal, state and local government web resources and services.